Terminal Aerodrome Forecast
Issued by NWS Birmingham, AL

Home | Current Version | Previous Version | Text Only | Print | Product List | Glossary On
Versions: 1 2 3 4 5 6 7 8 9 10 11 12 13 14 15 16 17
860
FTUS44 KBMX 231720
TAFBHM
TAF
KBHM 231720Z 2318/2418 22010G17KT P6SM VCSH SCT025 OVC050
      TEMPO 2318/2320 2SM SHRA
     FM240100 24003KT P6SM VCSH OVC050
     FM240800 24003KT 6SM -DZ OVC025
     FM241200 24004KT 4SM -DZ OVC007=

USA.gov is the U.S. government's official web portal to all federal, state and local government web resources and services.